When you browse on this site, cookies collect data to enhance your experience and personalize the content and advertising you see.
Visit our Privacy Policy to learn more. By continuing to use the site, you agree to this use of cookies and data.
  • In United Kingdom
  • List of Countries
  • For 7 days
  • Water Temperature
  • Satellite Maps
  • Weather Map
  • Weather Widgets
  • user-avatar
    Login

    Hourly Weather Les Mureaux

    Today, 16 February, Saturday

    Time Temperature Precipitation Wind Pressure Humidity
    00:00 +7°C° 0 mm 1 mps 762 mmHg 74%
    01:00 +7°C° 0 mm 1 mps 761 mmHg 75%
    02:00 +6°C° 0 mm 1 mps 761 mmHg 77%
    03:00 +6°C° 0 mm 1 mps 761 mmHg 78%
    04:00 +5°C° 0 mm 2 mps 761 mmHg 79%
    05:00 +5°C° 0 mm 2 mps 761 mmHg 80%
    06:00 +4°C° 0 mm 2 mps 761 mmHg 80%
    07:00 +5°C° 0 mm 2 mps 761 mmHg 78%
    08:00 +6°C° 0 mm 2 mps 762 mmHg 75%
    09:00 +7°C° 0 mm 2 mps 762 mmHg 73%
    10:00 +8°C° 0 mm 2 mps 762 mmHg 69%
    11:00 +10°C° 0 mm 3 mps 762 mmHg 64%
    12:00 +11°C° 0 mm 3 mps 762 mmHg 60%
    13:00 +13°C° 0 mm 2 mps 761 mmHg 60%
    14:00 +14°C° 0 mm 2 mps 761 mmHg 60%
    15:00 +14°C° 0 mm 2 mps 760 mmHg 60%
    16:00 +13°C° 0 mm 2 mps 760 mmHg 66%
    17:00 +10°C° 0 mm 2 mps 760 mmHg 72%
    18:00 +9°C° 0 mm 2 mps 760 mmHg 78%
    19:00 +9°C° 0 mm 2 mps 760 mmHg 79%
    20:00 +8°C° 0 mm 2 mps 760 mmHg 80%
    21:00 +8°C° 0 mm 2 mps 759 mmHg 80%
    22:00 +7°C° 0 mm 2 mps 759 mmHg 80%
    23:00 +7°C° 0 mm 2 mps 759 mmHg 80%

    Tomorrow, 17 February, Sunday

    Time Temperature Precipitation Wind Pressure Humidity
    00:00 +7°C° 0 mm 2 mps 759 mmHg 79%
    01:00 +7°C° 0 mm 3 mps 758 mmHg 79%
    02:00 +5°C° 0 mm 3 mps 758 mmHg 78%
    03:00 +5°C° 0 mm 3 mps 758 mmHg 77%
    04:00 +5°C° 0 mm 3 mps 757 mmHg 75%
    05:00 +5°C° 0 mm 3 mps 757 mmHg 72%
    06:00 +4°C° 0 mm 3 mps 757 mmHg 70%
    07:00 +5°C° 0 mm 4 mps 757 mmHg 66%
    08:00 +6°C° 0 mm 4 mps 757 mmHg 62%
    09:00 +6°C° 0 mm 5 mps 757 mmHg 58%
    10:00 +8°C° 0 mm 5 mps 757 mmHg 55%
    11:00 +10°C° 0 mm 5 mps 757 mmHg 52%
    12:00 +12°C° 0 mm 5 mps 757 mmHg 49%
    13:00 +13°C° 0 mm 5 mps 757 mmHg 50%
    14:00 +13°C° 0 mm 5 mps 756 mmHg 50%
    15:00 +14°C° 0 mm 4 mps 756 mmHg 51%
    16:00 +12°C° 0 mm 4 mps 756 mmHg 56%
    17:00 +11°C° 0 mm 3 mps 756 mmHg 61%
    18:00 +10°C° 0 mm 2 mps 756 mmHg 66%
    19:00 +9°C° 0 mm 2 mps 756 mmHg 68%
    20:00 +9°C° 0 mm 2 mps 756 mmHg 70%
    21:00 +8°C° 0 mm 3 mps 756 mmHg 71%
    22:00 +8°C° 0 mm 2 mps 756 mmHg 74%
    23:00 +7°C° 0 mm 2 mps 756 mmHg 76%

    Day after tomorrow, 18 February, Monday

    Time Temperature Precipitation Wind Pressure Humidity
    00:00 +7°C° 0 mm 2 mps 756 mmHg 78%
    01:00 +7°C° 0 mm 2 mps 756 mmHg 80%
    02:00 +6°C° 0 mm 2 mps 756 mmHg 83%
    03:00 +6°C° 0 mm 2 mps 756 mmHg 85%
    04:00 +6°C° 0 mm 2 mps 756 mmHg 86%
    05:00 +5°C° 0 mm 2 mps 756 mmHg 88%
    06:00 +5°C° 0 mm 2 mps 755 mmHg 89%
    07:00 +6°C° 0 mm 2 mps 756 mmHg 86%
    08:00 +6°C° 0 mm 2 mps 756 mmHg 82%
    09:00 +7°C° 0 mm 3 mps 756 mmHg 78%
    10:00 +8°C° 0 mm 3 mps 756 mmHg 73%
    11:00 +10°C° 0 mm 3 mps 756 mmHg 67%
    12:00 +11°C° 0 mm 3 mps 756 mmHg 62%
    13:00 +12°C° 0 mm 3 mps 755 mmHg 62%
    14:00 +12°C° 0 mm 3 mps 755 mmHg 61%
    15:00 +13°C° 0 mm 3 mps 755 mmHg 61%
    16:00 +12°C° 0 mm 3 mps 755 mmHg 66%
    17:00 +10°C° 0 mm 2 mps 755 mmHg 72%
    18:00 +9°C° 0 mm 2 mps 755 mmHg 78%
    19:00 +9°C° 0 mm 2 mps 756 mmHg 80%
    20:00 +9°C° 0 mm 2 mps 756 mmHg 83%
    21:00 +8°C° 0 mm 2 mps 756 mmHg 85%
    22:00 +8°C° 0 mm 2 mps 756 mmHg 86%
    23:00 +8°C° 0 mm 2 mps 756 mmHg 86%

    19 February, Tuesday

    Time Temperature Precipitation Wind Pressure Humidity
    00:00 +9°C° 0 mm 1 mps 756 mmHg 87%
    01:00 +9°C° 0 mm 1 mps 756 mmHg 89%
    02:00 +9°C° 0 mm 1 mps 756 mmHg 91%
    03:00 +8°C° 0 mm 1 mps 756 mmHg 93%
    04:00 +8°C° 0.1 mm 1 mps 756 mmHg 93%
    05:00 +8°C° 0.1 mm 1 mps 757 mmHg 94%
    06:00 +8°C° 0.1 mm 1 mps 757 mmHg 94%
    07:00 +8°C° 0 mm 1 mps 757 mmHg 91%
    08:00 +9°C° 0 mm 1 mps 758 mmHg 88%
    09:00 +9°C° 0 mm 1 mps 758 mmHg 85%
    10:00 +10°C° 0 mm 1 mps 758 mmHg 78%
    11:00 +11°C° 0 mm 1 mps 758 mmHg 70%
    12:00 +12°C° 0 mm 2 mps 759 mmHg 63%
    13:00 +12°C° 0 mm 2 mps 758 mmHg 61%
    14:00 +12°C° 0 mm 2 mps 758 mmHg 60%
    15:00 +13°C° 0 mm 2 mps 758 mmHg 58%
    16:00 +12°C° 0 mm 2 mps 758 mmHg 61%
    17:00 +11°C° 0 mm 1 mps 758 mmHg 64%
    18:00 +10°C° 0 mm 1 mps 759 mmHg 67%
    19:00 +10°C° 0 mm 1 mps 759 mmHg 69%
    20:00 +9°C° 0 mm 1 mps 759 mmHg 72%
    21:00 +9°C° 0 mm 1 mps 759 mmHg 75%
    22:00 +8°C° 0 mm 1 mps 759 mmHg 78%
    23:00 +8°C° 0 mm 1 mps 759 mmHg 80%

    20 February, Wednesday

    Time Temperature Precipitation Wind Pressure Humidity
    00:00 +7°C° 0 mm 1 mps 759 mmHg 83%
    01:00 +7°C° 0 mm 1 mps 759 mmHg 84%
    02:00 +5°C° 0 mm 2 mps 759 mmHg 86%
    03:00 +5°C° 0 mm 2 mps 759 mmHg 87%
    04:00 +5°C° 0 mm 2 mps 759 mmHg 88%
    05:00 +5°C° 0 mm 2 mps 759 mmHg 89%
    06:00 +5°C° 0 mm 2 mps 759 mmHg 90%
    07:00 +6°C° 0 mm 2 mps 760 mmHg 88%
    08:00 +6°C° 0 mm 2 mps 760 mmHg 85%
    09:00 +7°C° 0 mm 2 mps 760 mmHg 83%
    10:00 +9°C° 0 mm 2 mps 760 mmHg 78%
    11:00 +10°C° 0 mm 2 mps 760 mmHg 73%
    12:00 +12°C° 0 mm 3 mps 760 mmHg 68%
    13:00 +13°C° 0 mm 3 mps 760 mmHg 66%
    14:00 +13°C° 0 mm 3 mps 760 mmHg 64%
    15:00 +14°C° 0 mm 3 mps 760 mmHg 62%
    16:00 +14°C° 0 mm 2 mps 760 mmHg 68%
    17:00 +12°C° 0 mm 2 mps 760 mmHg 73%
    18:00 +11°C° 0 mm 1 mps 760 mmHg 78%
    19:00 +10°C° 0 mm 2 mps 760 mmHg 80%
    20:00 +9°C° 0 mm 2 mps 761 mmHg 82%
    21:00 +9°C° 0 mm 2 mps 761 mmHg 84%
    22:00 +8°C° 0 mm 2 mps 761 mmHg 85%
    23:00 +8°C° 0 mm 2 mps 761 mmHg 85%

    21 February, Thursday

    Time Temperature Precipitation Wind Pressure Humidity
    00:00 +9°C° 0 mm 1 mps 761 mmHg 86%
    01:00 +9°C° 0 mm 1 mps 761 mmHg 87%
    02:00 +8°C° 0 mm 1 mps 761 mmHg 87%
    03:00 +8°C° 0 mm 1 mps 761 mmHg 88%
    04:00 +8°C° 0 mm 1 mps 761 mmHg 88%
    05:00 +8°C° 0 mm 1 mps 761 mmHg 88%
    06:00 +7°C° 0 mm 1 mps 761 mmHg 89%
    07:00 +8°C° 0 mm 1 mps 761 mmHg 85%
    08:00 +9°C° 0 mm 1 mps 762 mmHg 82%
    09:00 +10°C° 0 mm 1 mps 762 mmHg 78%
    10:00 +11°C° 0 mm 1 mps 762 mmHg 72%
    11:00 +13°C° 0 mm 1 mps 762 mmHg 66%
    12:00 +14°C° 0 mm 1 mps 762 mmHg 60%
    13:00 +15°C° 0 mm 1 mps 762 mmHg 58%
    14:00 +15°C° 0 mm 1 mps 762 mmHg 56%
    15:00 +16°C° 0 mm 1 mps 761 mmHg 54%
    16:00 +14°C° 0 mm 1 mps 761 mmHg 59%
    17:00 +13°C° 0 mm 1 mps 761 mmHg 63%
    18:00 +12°C° 0 mm 1 mps 761 mmHg 67%
    19:00 +11°C° 0 mm 1 mps 762 mmHg 69%
    20:00 +11°C° 0 mm 1 mps 762 mmHg 71%
    21:00 +10°C° 0 mm 1 mps 762 mmHg 73%
    22:00 +10°C° 0 mm 1 mps 762 mmHg 75%
    23:00 +10°C° 0 mm 1 mps 762 mmHg 77%
    Show more